Torna al catalogo

STARLINK-34174

AttivoComunicazioniVLEO
NORAD 64097·PAYLOAD·🇺🇸 United States

Lanciato May 23, 2025 da Vandenberg Space Force Base

Loading…

Prossimi Passaggi (prossime 24 ore)

TLE

AggiornatoSource: CelesTrak SupGP

Epoca: Sep 15, 2026, 02:18 UTC

1 64097C 25110B   26258.09631944 -.00051731  00000+0 -15287-2 0  2585
2 64097  53.1576 223.0865 0000753  96.1162   9.8828 15.34409994    15

Traccia STARLINK-34174 in tempo reale con AllMySat

Download on the App Store